Other Public Products
Issued by NWS Grand Forks, ND

Home | Current Version | Previous Version | Text Only | Print | Product List | Glossary On
Versions: 1 2 3 4 5 6 7 8 9 10 11 12 13 14 15 16 17 18 19 20 21 22 23 24 25 26 27 28 29 30 31 32 33 34 35 36 37 38 39 40 41 42 43 44 45 46 47 48 49 50
000
FPUS83 KFGF 172031
OPUFGF
PRAIRIE TO PINES WEATHER ROUNDUP
NATIONAL WEATHER SERVICE EASTERN NORTH DAKOTA/GRAND FORKS ND
200 PM CST WED JAN 17 2018

 **SATELLITE DATA USED TO AUGMENT SKY COVER AT AUTOMATED STATIONS**
 *****  WEATHER ACROSS EASTERN NORTH DAKOTA  *****

CITY           SKY/WX    TMP DP  RH WIND       PRES   REMARKS
GRAND FORKS    FAIR      30  23  75 W9        29.90F WCI  22
GRND FORKS AFB FAIR      36  22  55 W13       29.90F
GRND FORKS NWS   N/A     30 N/A N/A SW3         N/A
BUXTON           N/A    N/A N/A N/A CALM        N/A
DEVILS LAKE    FAIR      33  23  66 W18       29.92F WCI  22
FARGO          FAIR      25  16  68 SW14      30.01F WCI  13
WAHPETON ARPT  FAIR      28  18  64 W18       30.06S WCI  16
$$

 *****  WEATHER ACROSS CENTRAL AND WESTERN NORTH DAKOTA  *****

CITY           SKY/WX    TMP DP  RH WIND       PRES   REMARKS
JAMESTOWN      FAIR      33  21  61 W21       29.99F WCI  21
BISMARCK       FAIR      38  25  59 W17       30.08F
MINOT          FAIR      36  21  54 SW20G26   29.96F
MINOT AFB      FAIR      35  24  64 W23       29.94F WCI  23
GARRISON         N/A     37  22  54 W18G28    30.02F
WILLISTON      FAIR      32  21  64 W16       30.07F WCI  21
DICKINSON      FAIR      37  23  56 W21       30.08F
HETTINGER      FAIR      34  23  64 W20       30.15F WCI  23
$$

 *****  OTHER OBSERVATIONS NORTHEAST NORTH DAKOTA  *****

CITY           SKY/WX    TMP DP  RH WIND       PRES   REMARKS
WALHALLA       FAIR      36  23  60 W12G24    29.81F
LANGDON        FAIR      30  25  80 SW23      29.83F WCI  17
CAVALIER         N/A     36  23  60 W15       29.83F
GRAFTON        FAIR      32  25  74 W10       29.88F WCI  24
CANDO          FAIR      36  25  64 W22G29    29.90F
FORT TOTTEN      N/A     38  22  53 W9        29.95S
ROLLA          FAIR      36  25  64 SW13G21   29.85F
RUGBY          FAIR      34  25  69 W17G24    29.93F WCI  23
 ***** THE ABOVE OBSERVATIONS ARE NON NWS ARE NOT QUALITY
        CONTROLLED AND MAY MIS-REPORT RAIN FOR SNOW...
$$

 *****  OTHER OBSERVATIONS SOUTHEAST NORTH DAKOTA *****

CITY           SKY/WX    TMP DP  RH WIND       PRES   REMARKS
COOPERSTOWN    FAIR      34  23  64 W21       29.95R WCI  22
VALLEY CITY    FLURRIES  30  23  74 W18       29.98F WCI  18
OAKES            N/A     32  23  69 SW12      30.05F WCI  23
GWINNER          N/A     28  18  64 SW18G24   30.04S WCI  16
SHEYENNE NWR     N/A     30  17  58 W13       29.95S WCI  20
BUFFALO          N/A     32  19  58 E16         N/A  WCI  21
WYNDMERE       NOT AVBL
 ***** THE ABOVE OBSERVATIONS ARE NON NWS ARE NOT QUALITY
       CONTROLLED AND MAY MIS-REPORT RAIN FOR SNOW...
$$

  *****  WEATHER ACROSS NORTHERN MINNESOTA  *****

CITY           SKY/WX    TMP DP  RH WIND       PRES   REMARKS
FLAG ISLAND    FAIR      25  10  54 SW10      29.77F WCI  15
WARROAD        FAIR      21  12  68 SW9       29.82F WCI  11
ROSEAU         FAIR      21  14  73 SW14      29.83F WCI   8
HALLOCK        FAIR      25  19  80 S10       29.85S WCI  15
THF RVR FALLS  FAIR      19  11  70 SW16      29.90F WCI   4
HALSTAD        NOT AVBL
FOSSTON        FAIR      21  10  63 SW17      29.93F WCI   7
BAUDETTE       FAIR      22  10  60 SW13      29.81F WCI  10
WASKISH        FAIR      21  14  73 SW15      29.86F WCI   8
CROOKSTON      FAIR      21  16  79 SW15      29.94F WCI   8
$$
  *****  WEATHER ACROSS CENTRAL AND WEST MINNESOTA  *****

CITY           SKY/WX    TMP DP  RH WIND       PRES   REMARKS
BEMIDJI        FAIR      28  14  57 W13G25    29.89S WCI  17
PARK RAPIDS    FAIR      26  12  55 W14       29.94F WCI  14
WADENA         FAIR      27  12  54 W10       30.00S WCI  17
DETROIT LAKES  FAIR      27  14  59 SW13      30.00F WCI  16
MOORHEAD       FAIR      27  16  63 SW10      30.03F WCI  17
FERGUS FALLS   FAIR      27  18  69 W12       30.08S WCI  16
ELBOW LAKE     FAIR      32  18  57 SW12      30.06S HAZE    WCI  23
MORRIS MN      FAIR      34  18  51 SW15      30.05F WCI  24
STAPLES        FAIR      28   9  43 SW13      30.00S WCI  18
WHEATON        NOT AVBL
$$
  *****  WEATHER ELSEWHERE ACROSS MINNESOTA  *****

CITY           SKY/WX    TMP DP  RH WIND       PRES   REMARKS
DULUTH         FAIR      22   7  52 SW18G28   29.87F WCI   7
INTRNTL FALLS  FAIR      25   9  50 W10G18    29.82F WCI  15
ELY            FAIR      27  10  50 W13G23    29.81S WCI  16
CLOQUET        FAIR      25   3  39 SW15      29.91F WCI  12
BRAINERD       FAIR      27   8  44 SW20      29.99F WCI  13
HIBBING        FAIR      27   9  46 W6G17     29.87S WCI  20
ALEXANDRIA     FAIR      28  13  53 W13       30.05F WCI  17
SAINT CLOUD    FAIR      23  12  62 S14       30.09F WCI  11
MINNEAPOLIS    FAIR      24   9  52 SW14G21   30.15F WCI  12
$$

  *****  WEATHER ACROSS SOUTH DAKOTA  *****

CITY           SKY/WX    TMP DP  RH WIND       PRES   REMARKS
SIOUX FALLS    FAIR      28  15  58 SW13      30.21F WCI  17
BROOKINGS      FAIR      27  15  61 SW13      30.16F WCI  16
WATERTOWN      FAIR      29  15  56 SW18      30.10F WCI  16
HURON          FAIR      33  18  53 S9        30.17F
SISSETON         N/A     34  18  52 W14       30.04F WCI  25
ABERDEEN       FAIR      40  22  48 SW13      30.11F
MITCHELL       FAIR      32  18  56 SW10      30.22F WCI  24
PIERRE         FAIR      41  22  46 W15       30.18F
MOBRIDGE       FAIR      41  24  51 NW9       30.10F
RAPID CITY     FAIR      45  29  53 N12       30.22F
$$

  *****  SOME WEATHER IN NEARBY STATES *****

CITY           SKY/WX    TMP DP  RH WIND       PRES   REMARKS
GLASGOW MT     FAIR      20   8  60 CALM      30.10F
GREAT FALLS MT FAIR      41  24  51 SW16      30.08F
CHEYENNE WY    FAIR      45   9  23 N15G24    30.26F
SCOTTSBLUFF NE FAIR      38  23  55 NW9       30.27F
OMAHA NE       FAIR      28   9  44 SW13      30.41F WCI  17
DES MOINES IA  FAIR      24   9  52 SW15      30.41F WCI  11
DAVENPORT IA   FAIR      21  10  62 SW16      30.47F WCI   7
CHICAGO IL     FAIR      19   8  62 W15G22    30.42F WCI   5
EAU CLAIRE WI  FLURRIES  24   7  48 SW14G23   30.13F WCI  12
LA CROSSE WI   FAIR      24   8  50 S14G23    30.27F WCI  12
$$

  *****  SOME NATIONAL WEATHER *****

CITY           SKY/WX    TMP DP  RH WIND       PRES   REMARKS
LA GUARDIA NY  FLURRIES  34  29  82 NW10      30.17S
RALEIGH NC     HVY SNOW  32  31  96 NE13      30.18F VSB 1/4 WCI  22
ATLANTA GA     FAIR      24   8  50 NW24G32   30.34F WCI   8
NEW ORLEANS LA FAIR      32  15  49 N13G21    30.59F WCI  22
OKLAHOMA CITY  FAIR      32   2  27 S10       30.58F WCI  24
ALBUQUERQUE NM PTSUNNY   36  14  40 SW5       30.34F
SALT LAKE CITY PTSUNNY   51  27  39 CALM      30.37F
LOS ANGELES CA PTSUNNY   68  56  65 W12       30.15F
BOISE ID       CLOUDY    42  33  70 SE13      30.34F
SEATTLE WA     CLOUDY    54  40  59 E10       29.85F
$$

*** WEATHER ACROSS MANITOBA...SASKATCHEWAN AND ONTARIO ***
                ***ONTARIO***

CITY           SKY/WX    TMP DP  RH WIND       PRES   REMARKS
GERALDTON      PTSUNNY   18   3  53 W12       29.68F WCI   5
THUNDER BAY    MOSUNNY   28  10  47 W14       29.76F WCI  17
SIOUX LOOKOUT  SUNNY     18   5  57 W6        29.72F WCI   9
TORONTO        PTSUNNY   21   9  58 W17       30.24F WCI   7
BIG TROUT LK   FLURRIES  14   9  79 N5        29.73R WCI   6
PICKLE LAKE    PTSUNNY   16   3  57 NW5       29.68F WCI   9
DRYDEN         SUNNY     18   7  62 SW13G18   29.74F WCI   4
KENORA         SUNNY     16   7  67 SW10      29.76F WCI   3
$$
                *** MANITOBA***

CITY           SKY/WX    TMP DP  RH WIND       PRES   REMARKS
BRANDON        SUNNY     36  27  69 W17       29.78F
DAUPHIN        SUNNY     39  28  65 W29       29.67F
ISLAND LAKE    FLURRIES  10   3  72 VRB2      29.73S
PILOT MOUND      N/A     39  25  56 W14G23      N/A
THE PAS        SUNNY      9   0  66 N3        29.66F
THOMPSON       LGT SNOW  12   9  85 E7        29.76F WCI   2
WINNIPEG       SUNNY     32  21  64 SW7       29.76F
LYNN LAKE      FLURRIES  12  10  92 E8        29.73F WCI   1
CHURCHILL      PTCLDY    -2  -4  92 E3        29.94S
$$
                ***SASKATCHEWAN***

CITY           SKY/WX    TMP DP  RH WIND       PRES   REMARKS
ESTEVAN        MOSUNNY   37  25  60 W20G26    29.94F
KINDERSLEY     MOSUNNY   36  23  60 W17       29.91F
LLOYDMINSTER   MOSUNNY   39  25  56 W20G30    29.81F
PRINCE ALBERT  PTSUNNY   25  19  80 NW15G21   29.71F WCI  12
REGINA         PTSUNNY   37  28  70 W17G28    29.88F
YORKTON        CLOUDY    37  32  81 W24G31    29.68F
N. BATTLEFORD  SUNNY     41  28  60 W17G25    29.82F



USA.gov is the U.S. government's official web portal to all federal, state and local government web resources and services.